TimeEDT,TemperatureF,Dew PointF,Humidity,Sea Level PressureIn,VisibilityMPH,Wind Direction,Wind SpeedMPH,Gust SpeedMPH,PrecipitationIn,Events,Conditions,WindDirDegrees,DateUTC
12:53 AM,66.9,63.0,87,30.04,10.0,Calm,Calm,-,N/A,,Clear,0,2012-10-15 04:53:00
1:53 AM,64.0,62.1,93,30.02,10.0,Calm,Calm,-,N/A,,Clear,0,2012-10-15 05:53:00
2:53 AM,64.0,62.1,93,30.01,9.0,Calm,Calm,-,N/A,,Partly Cloudy,0,2012-10-15 06:53:00
3:53 AM,64.0,62.1,93,29.97,9.0,Calm,Calm,-,N/A,,Partly Cloudy,0,2012-10-15 07:53:00
4:53 AM,63.0,62.1,97,29.96,9.0,Calm,Calm,-,N/A,,Partly Cloudy,0,2012-10-15 08:53:00
5:53 AM,63.0,61.0,93,29.95,6.0,Calm,Calm,-,N/A,,Scattered Clouds,0,2012-10-15 09:53:00
6:23 AM,62.6,60.8,94,29.96,1.5,Calm,Calm,-,N/A,,Clear,0,2012-10-15 10:23:00
6:30 AM,62.6,60.8,94,29.96,1.2,Calm,Calm,-,N/A,,Partly Cloudy,0,2012-10-15 10:30:00
6:33 AM,62.6,60.8,94,29.96,2.5,Calm,Calm,-,N/A,,Partly Cloudy,0,2012-10-15 10:33:00
6:40 AM,62.6,60.8,94,29.95,4.0,Calm,Calm,-,N/A,,Clear,0,2012-10-15 10:40:00
6:53 AM,62.1,60.1,93,29.95,4.0,Calm,Calm,-,N/A,,Clear,0,2012-10-15 10:53:00
7:53 AM,61.0,59.0,93,29.96,4.0,Calm,Calm,-,N/A,,Scattered Clouds,0,2012-10-15 11:53:00
8:08 AM,62.6,60.8,94,29.96,1.8,Calm,Calm,-,N/A,,Partly Cloudy,0,2012-10-15 12:08:00
8:14 AM,60.8,60.8,100,29.96,3.0,Calm,Calm,-,N/A,,Partly Cloudy,0,2012-10-15 12:14:00
8:53 AM,64.0,63.0,96,29.96,8.0,Calm,Calm,-,N/A,,Overcast,0,2012-10-15 12:53:00
9:53 AM,70.0,66.0,87,29.96,10.0,SW,5.8,-,N/A,,Mostly Cloudy,220,2012-10-15 13:53:00
10:53 AM,75.0,66.9,76,29.94,10.0,SW,9.2,18.4,N/A,,Mostly Cloudy,220,2012-10-15 14:53:00
11:22 AM,75.2,66.2,73,29.92,10.0,WSW,15.0,19.6,N/A,,Mostly Cloudy,240,2012-10-15 15:22:00
11:53 AM,78.1,66.9,68,29.89,10.0,SW,16.1,23.0,N/A,,Scattered Clouds,230,2012-10-15 15:53:00
12:12 PM,77.0,66.2,69,29.90,10.0,SW,16.1,24.2,N/A,,Mostly Cloudy,230,2012-10-15 16:12:00
12:43 PM,78.8,66.2,65,29.89,10.0,WSW,13.8,21.9,N/A,,Mostly Cloudy,240,2012-10-15 16:43:00
12:53 PM,79.0,66.9,66,29.88,10.0,WSW,10.4,21.9,N/A,,Mostly Cloudy,240,2012-10-15 16:53:00
1:53 PM,79.0,64.9,62,29.84,10.0,SSW,11.5,-,N/A,,Overcast,210,2012-10-15 17:53:00
2:01 PM,78.8,64.4,61,29.84,10.0,WSW,11.5,-,N/A,,Mostly Cloudy,240,2012-10-15 18:01:00
2:41 PM,80.6,66.2,61,29.82,10.0,SW,11.5,-,N/A,,Mostly Cloudy,230,2012-10-15 18:41:00
2:53 PM,80.1,66.0,62,29.81,10.0,SW,10.4,-,N/A,,Mostly Cloudy,220,2012-10-15 18:53:00
3:53 PM,80.1,63.0,56,29.79,10.0,WSW,15.0,-,N/A,,Mostly Cloudy,240,2012-10-15 19:53:00
4:53 PM,79.0,62.1,56,29.78,10.0,WSW,15.0,21.9,N/A,,Partly Cloudy,240,2012-10-15 20:53:00
5:53 PM,78.1,63.0,60,29.78,10.0,West,10.4,-,N/A,,Partly Cloudy,270,2012-10-15 21:53:00
6:53 PM,73.9,62.1,66,29.79,10.0,West,6.9,-,N/A,,Clear,260,2012-10-15 22:53:00
7:53 PM,70.0,60.1,71,29.80,10.0,West,4.6,-,N/A,,Clear,270,2012-10-15 23:53:00
8:53 PM,71.1,57.0,61,29.83,10.0,NW,5.8,-,N/A,,Clear,310,2012-10-16 00:53:00
9:53 PM,66.9,54.0,63,29.85,10.0,NNW,3.5,-,N/A,,Clear,340,2012-10-16 01:53:00
10:53 PM,64.0,52.0,65,29.86,10.0,NNW,5.8,-,N/A,,Clear,330,2012-10-16 02:53:00
11:53 PM,62.1,51.1,67,29.87,10.0,NNW,4.6,-,N/A,,Clear,330,2012-10-16 03:53:00